OPS 4682 DEB, 38385

Orbit data source: Space-Track

OPS 4682 DEB, 38385 is space debris in LEO originally from a launch on Sat, 03 Apr 1965 UTC launched from the Air Force Western Test Range (AFWTR). Debris objects in space refer to the collection of defunct objects orbiting the Earth. Examples of debris include non-operational satellites, rocket bodies, and fragments generated from explosions, collisions, or faulty payload assembly.

Loading next visibility...
Identifier
38385, 1965-027CN
Orbit
LEO
Country
Flag of USUS
Related business
Manufacturer
Unknown
Mission
Spacecraft
Bus & Motor
Unknown
Mass
Unknown
Launch date (UTC)
1965-04-03 (61 years ago)
Launch vehicle
Unknown
Launch site
Air Force Western Test Range (AFWTR)
Object type
Payload
Rocket body
Debris
Shape & HBR
Unknown shape, 0.1 m
Radar Cross Section
Medium (>0.1 m² and <1 m²)

Expand to show TLE details & history
Last TLE update: 2 days ago

TLE from 2 days ago
0 OPS 4682 DEB
1 38385U 65027CN  26218.17355694  .00000002  00000-0 -16845-4 0  9997
2 38385  90.2401 359.9381 0041998 304.6851  55.0315 12.96711591621933
Epoch: 2026-08-06T04:09Z
TLE epoch observation values (Epoch: 2026-08-06T04:09:55.319Z)
Latitude
-0.00003°
Longitude
-17.2598°
Altitude
1,259.543 km
Speed
7.234 km/s
True Right ascension
23h 59m 45s
True Declination
0° 00' 00"
Sunlit
Object was in full shadow at epoch
Visualization orbit readout
Latitude
Unknown
Longitude
Unknown
Altitude
Unknown
Speed
Unknown
Apparent Right ascension
Unknown
Apparent Declination
Unknown
Sunlit
N/A
Visualization observer readout
Local Sidereal Time
21:31:30
Azimuth
Unknown
Elevation
Unknown
Doppler factor
Unknown
Orbital elements
Apogee altitude
1,304.259 km
Perigee altitude
1,240 km
Semi-major axis
7,650.267 km
Eccentricity
0.0042
Inclination
90.2401°
RAAN
359.9381°
Arg. of periapsis
304.6851°
True anomaly
55.42707°
Mean anomaly
55.0315°
Eccentric anomaly
55.22916°
Mean motion
3.24361 °/min
Orbital period
110.99 mins
BSTAR
-0.000016845
Loading maneuver chart data...
Computing Atmospheric mass density...
Loading historical data...
Loading historical data...
Loading historical data...
Loading historical data...
Loading historical data...
Loading historical data...
Loading historical data...

Documentation

Showing up to 5 results
|